TimeEDT,TemperatureF,Dew PointF,Humidity,Sea Level PressureIn,VisibilityMPH,Wind Direction,Wind SpeedMPH,Gust SpeedMPH,PrecipitationIn,Events,Conditions,WindDirDegrees,DateUTC
12:53 AM,41.0,36.0,82,30.21,10.0,West,3.5,-,N/A,,Clear,270,2012-10-08 04:53:00
1:53 AM,37.9,36.0,93,30.22,8.0,Calm,Calm,-,N/A,,Clear,0,2012-10-08 05:53:00
2:53 AM,39.0,36.0,89,30.20,10.0,Calm,Calm,-,N/A,,Clear,0,2012-10-08 06:53:00
3:53 AM,37.0,34.0,89,30.22,10.0,Calm,Calm,-,N/A,,Clear,0,2012-10-08 07:53:00
4:53 AM,37.9,35.1,89,30.24,9.0,Calm,Calm,-,N/A,,Clear,0,2012-10-08 08:53:00
5:53 AM,39.0,36.0,89,30.24,10.0,Calm,Calm,-,N/A,,Clear,0,2012-10-08 09:53:00
6:53 AM,37.9,36.0,93,30.27,7.0,Calm,Calm,-,N/A,,Clear,0,2012-10-08 10:53:00
7:53 AM,39.9,37.9,93,30.27,8.0,Calm,Calm,-,N/A,,Clear,0,2012-10-08 11:53:00
8:53 AM,43.0,39.9,89,30.30,9.0,Calm,Calm,-,N/A,,Clear,0,2012-10-08 12:53:00
9:53 AM,44.1,39.9,85,30.30,10.0,Calm,Calm,-,N/A,,Partly Cloudy,0,2012-10-08 13:53:00
10:53 AM,46.0,39.0,76,30.29,10.0,Calm,Calm,-,N/A,,Mostly Cloudy,0,2012-10-08 14:53:00
11:53 AM,46.9,39.0,74,30.31,10.0,SSW,3.5,-,N/A,,Overcast,210,2012-10-08 15:53:00
12:53 PM,46.0,39.9,79,30.32,8.0,South,8.1,-,0.00,Rain,Light Rain,180,2012-10-08 16:53:00
1:53 PM,45.0,37.0,74,30.30,10.0,NNW,3.5,-,0.03,Rain,Light Rain,330,2012-10-08 17:53:00
2:53 PM,44.1,37.0,76,30.32,10.0,Calm,Calm,-,0.09,Rain,Light Rain,0,2012-10-08 18:53:00
3:53 PM,44.1,36.0,73,30.31,10.0,NNW,3.5,-,0.01,Rain,Light Rain,330,2012-10-08 19:53:00
4:53 PM,44.1,37.9,79,30.27,10.0,North,6.9,-,0.02,Rain,Light Rain,350,2012-10-08 20:53:00
5:53 PM,43.0,39.0,86,30.28,10.0,North,3.5,-,0.01,Rain,Light Rain,350,2012-10-08 21:53:00
6:53 PM,43.0,39.0,86,30.26,10.0,NNE,3.5,-,0.00,,Overcast,30,2012-10-08 22:53:00
7:53 PM,43.0,39.9,89,30.26,10.0,NW,3.5,-,0.01,,Overcast,320,2012-10-08 23:53:00
8:53 PM,44.1,39.9,85,30.26,10.0,North,3.5,-,0.00,,Overcast,360,2012-10-09 00:53:00
9:53 PM,43.0,39.0,86,30.26,10.0,NNW,4.6,-,N/A,,Overcast,330,2012-10-09 01:53:00
10:53 PM,44.1,39.9,85,30.26,10.0,Calm,Calm,-,N/A,,Overcast,0,2012-10-09 02:53:00
11:53 PM,43.0,41.0,93,30.26,9.0,Calm,Calm,-,N/A,,Overcast,0,2012-10-09 03:53:00